Weather History for KLCK - May, 2014

Change the Weather History Date:

Saturday, May 10, 2014

  Actual Average Record
Temperature  
Mean Temperature 62 °F -  
Max Temperature 67 °F 72 °F 89 °F (2004)
Min Temperature 57 °F 51 °F 44 °F (1997)
Degree Days  
Heating Degree Days 3    
Growing Degree Days 12 (Base 50)    
Moisture  
Dew Point 57 °F    
Average Humidity 79    
Maximum Humidity 87    
Minimum Humidity 61    
Precipitation  
Precipitation 0.00 in - - ()
Sea Level Pressure  
Sea Level Pressure 29.96 in    
Wind  
Wind Speed 6 mph (SW)    
Max Wind Speed 14 mph    
Max Gust Speed 18 mph    
Visibility 8 miles    
Events Rain , Thunderstorm    
Averages and records for this station are not official NWS values.
T = Trace of Precipitation, MM = Missing Value Source: NWS Daily Summary

Daily Weather History Graph

Daily Weather History Graph

Search for Another Location

Airport or City:

Trip Planner

Search our weather history database for the weather conditions in past years. The results will help you decide how hot, cold, wet, or windy it might be!

Date:

Astronomy

May. 10, 2014 Rise Set
Actual Time 6:21 AM EDT 8:34 PM EDT
Civil Twilight 5:51 AM EDT 9:05 PM EDT
Nautical Twilight 5:14 AM EDT 9:42 PM EDT
Astronomical Twilight 4:34 AM EDT 10:22 PM EDT
Moon 4:30 PM EDT (5/10) 3:53 AM EDT (5/10)
Length of Visible Light 15h 13m
Length of Day
14h 13m
Waxing Gibbous, 82% of the Moon is Illuminated
May 10
Waxing Gibbous
May 14
Full
May 21
Last Quarter
May 28
New
Jun 5
First Quarter

Hourly Weather History & Observations

Time (EDT) Temp. Dew Point Humidity Pressure Visibility Wind Dir Wind Speed Gust Speed Precip Events Conditions
12:15 AM 67.1 °F 60.4 °F 79% 29.91 in 10.0 mi SSW 6.9 mph - N/A   Unknown
12:35 AM 66.6 °F 60.3 °F 80% 29.91 in 10.0 mi SSW 6.9 mph - N/A   Unknown
12:55 AM 66.2 °F 60.1 °F 81% 29.92 in 10.0 mi SSW 6.9 mph - N/A   Unknown
1:15 AM 66.2 °F 60.3 °F 81% 29.92 in 10.0 mi South 8.1 mph - N/A   Unknown
1:35 AM 66.6 °F 59.9 °F 79% 29.92 in 10.0 mi SSW 10.4 mph - N/A   Unknown
1:55 AM 66.7 °F 57.7 °F 73% 29.93 in 10.0 mi SW 12.7 mph - N/A   Unknown
2:15 AM 66.9 °F 54.1 °F 63% 29.92 in 10.0 mi SW 13.8 mph 18.4 mph N/A   Unknown
2:35 AM 66.4 °F 53.2 °F 63% 29.92 in 10.0 mi SW 11.5 mph 16.1 mph N/A   Unknown
2:55 AM 65.8 °F 53.1 °F 63% 29.92 in 10.0 mi SW 10.4 mph 16.1 mph N/A   Unknown
3:15 AM 65.5 °F 52.9 °F 64% 29.92 in 10.0 mi SW 10.4 mph - N/A   Unknown
3:35 AM 66.0 °F 52.3 °F 61% 29.93 in 10.0 mi WSW 12.7 mph 18.4 mph N/A   Unknown
3:55 AM 65.8 °F 52.2 °F 61% 29.93 in 10.0 mi SW 11.5 mph - N/A   Unknown
4:15 AM 65.3 °F 52.5 °F 63% 29.93 in 10.0 mi SW 10.4 mph - N/A   Unknown
4:35 AM 64.8 °F 53.4 °F 67% 29.94 in 10.0 mi SW 11.5 mph - N/A   Unknown
4:55 AM 64.6 °F 54.0 °F 68% 29.94 in 10.0 mi SW 8.1 mph - N/A   Unknown
5:15 AM 64.0 °F 54.3 °F 71% 29.94 in 10.0 mi SW 9.2 mph - N/A   Unknown
5:35 AM 63.7 °F 54.5 °F 72% 29.94 in 10.0 mi WSW 8.1 mph - N/A   Unknown
5:55 AM 63.7 °F 54.5 °F 72% 29.95 in 10.0 mi SW 8.1 mph - N/A   Unknown
6:15 AM 63.9 °F 54.9 °F 72% 29.95 in 10.0 mi SW 9.2 mph - N/A   Unknown
6:35 AM 64.0 °F 55.2 °F 73% 29.95 in 7.0 mi WSW 6.9 mph - N/A Rain Rain
6:55 AM 63.1 °F 56.3 °F 78% 29.96 in 10.0 mi SSW 6.9 mph - N/A Rain Rain
7:15 AM 63.0 °F 56.8 °F 80% 29.97 in 7.0 mi SW 4.6 mph - N/A Rain Rain
7:35 AM 62.6 °F 57.2 °F 82% 29.98 in 5.0 mi WSW 3.5 mph - N/A Rain Light Rain
7:55 AM 62.6 °F 57.6 °F 84% 29.97 in 7.0 mi Calm Calm - N/A Rain Light Rain
8:15 AM 62.8 °F 57.7 °F 84% 29.98 in 10.0 mi Calm Calm - N/A Rain Light Rain
8:35 AM 62.8 °F 58.1 °F 85% 29.98 in 5.0 mi NNW 3.5 mph - N/A Rain Rain
8:55 AM 62.6 °F 58.1 °F 85% 29.98 in 2.0 mi Calm Calm - N/A Rain Rain
9:15 AM 62.8 °F 58.6 °F 86% 29.98 in 7.0 mi Calm Calm - N/A Rain Light Rain
9:35 AM 63.1 °F 59.0 °F 86% 29.97 in 10.0 mi ESE 3.5 mph - N/A Rain Light Rain
9:55 AM 63.9 °F 59.4 °F 85% 29.97 in 10.0 mi South 3.5 mph - N/A   Unknown
10:15 AM 64.9 °F 60.4 °F 85% 29.97 in 10.0 mi West 5.8 mph - N/A   Unknown
10:35 AM 64.2 °F 59.5 °F 85% 29.97 in 2.5 mi NNW 3.5 mph - N/A Rain , Thunderstorm Heavy Thunderstorms and Rain
10:55 AM 63.9 °F 59.4 °F 85% 29.97 in 4.0 mi West 5.8 mph - N/A Rain Rain
11:15 AM 64.4 °F 59.7 °F 85% 29.97 in 2.5 mi Calm Calm - N/A Rain Rain
11:35 AM 64.6 °F 59.9 °F 85% 29.97 in 7.0 mi Calm Calm - N/A Rain Light Rain
11:55 AM 64.8 °F 60.1 °F 85% 29.97 in 7.0 mi WNW 3.5 mph - N/A Rain Light Rain
12:15 PM 64.0 °F 59.7 °F 86% 29.97 in 10.0 mi NNW 3.5 mph - N/A   Unknown
12:35 PM 63.9 °F 59.5 °F 86% 29.97 in 10.0 mi NW 4.6 mph - N/A Thunderstorm Unknown
12:55 PM 64.0 °F 59.7 °F 86% 29.97 in 7.0 mi NNW 6.9 mph - N/A Thunderstorm Unknown
1:15 PM 64.0 °F 59.4 °F 85% 29.95 in 7.0 mi East 3.5 mph - N/A Rain , Thunderstorm Light Thunderstorms and Rain
1:35 PM 64.4 °F 59.5 °F 84% 29.96 in 4.0 mi NW 6.9 mph - N/A Rain , Thunderstorm Thunderstorms and Rain
1:55 PM 64.4 °F 59.9 °F 85% 29.94 in 5.0 mi NNE 3.5 mph - N/A Rain Light Rain
2:15 PM 65.1 °F 60.3 °F 84% 29.97 in 10.0 mi WNW 6.9 mph - N/A   Unknown
2:35 PM 64.9 °F 59.7 °F 83% 29.96 in 4.0 mi NNW 6.9 mph - N/A Rain Rain
2:55 PM 63.9 °F 59.2 °F 85% 29.95 in 2.0 mi SE 6.9 mph - N/A Rain Heavy Rain
3:15 PM 63.7 °F 59.4 °F 86% 29.95 in 5.0 mi WSW 3.5 mph - N/A Rain Light Rain
3:35 PM 64.0 °F 59.7 °F 86% 29.93 in 5.0 mi Calm Calm - N/A Rain Light Rain
3:55 PM 65.1 °F 60.1 °F 84% 29.94 in 10.0 mi West 8.1 mph - N/A   Unknown
4:15 PM 65.3 °F 59.0 °F 80% 29.94 in 10.0 mi WNW 4.6 mph - N/A   Unknown
4:35 PM 65.3 °F 59.0 °F 80% 29.93 in 10.0 mi WNW 6.9 mph - N/A   Unknown
4:55 PM 65.3 °F 59.0 °F 80% 29.93 in 7.0 mi NNW 3.5 mph - N/A   Unknown
5:15 PM 64.9 °F 58.8 °F 81% 29.95 in 7.0 mi Calm Calm - N/A   Unknown
5:35 PM 64.8 °F 58.6 °F 81% 29.95 in 10.0 mi Calm Calm - N/A   Unknown
5:55 PM 64.8 °F 58.1 °F 79% 29.94 in 10.0 mi Calm Calm - N/A   Unknown
6:15 PM 64.9 °F 58.1 °F 78% 29.94 in 10.0 mi Calm Calm - N/A   Unknown
6:35 PM 65.1 °F 58.1 °F 78% 29.94 in 10.0 mi Calm Calm - N/A   Unknown
6:55 PM 65.5 °F 58.1 °F 77% 29.94 in 10.0 mi Calm Calm - N/A   Unknown
7:15 PM 66.6 °F 57.9 °F 74% 29.95 in 10.0 mi Calm Calm - N/A   Unknown
7:35 PM 66.4 °F 57.4 °F 73% 29.95 in 10.0 mi Calm Calm - N/A   Unknown
7:55 PM 65.5 °F 57.6 °F 76% 29.96 in 10.0 mi Calm Calm - N/A   Unknown
8:15 PM 65.1 °F 58.1 °F 78% 29.97 in 10.0 mi Calm Calm - N/A   Unknown
8:35 PM 64.4 °F 57.9 °F 79% 29.98 in 10.0 mi South 4.6 mph - N/A   Unknown
8:55 PM 63.7 °F 57.7 °F 81% 29.98 in 10.0 mi South 4.6 mph - N/A   Unknown
9:15 PM 62.4 °F 57.2 °F 83% 29.99 in 10.0 mi South 3.5 mph - N/A   Unknown
9:35 PM 61.3 °F 56.7 °F 85% 30.00 in 10.0 mi South 5.8 mph - N/A   Unknown
9:55 PM 60.1 °F 55.8 °F 86% 30.01 in 7.0 mi South 5.8 mph - N/A   Unknown
10:15 PM 59.9 °F 55.8 °F 86% 30.01 in 7.0 mi South 6.9 mph - N/A   Unknown
10:35 PM 59.9 °F 55.6 °F 86% 30.03 in 7.0 mi South 6.9 mph - N/A   Unknown
10:55 PM 59.5 °F 55.2 °F 86% 30.03 in 10.0 mi SSE 4.6 mph - N/A   Unknown
11:15 PM 58.8 °F 54.5 °F 86% 30.04 in 10.0 mi South 3.5 mph - N/A   Unknown
11:35 PM 57.6 °F 53.6 °F 87% 30.03 in 10.0 mi SSE 5.8 mph - N/A   Unknown
11:55 PM 57.2 °F 53.2 °F 87% 30.03 in 7.0 mi SSE 4.6 mph - N/A   Unknown